Tracking 20628 objects as of 6-Apr-2020
HD Live streaming from Space Station
objects crossing your sky now

METEOR 2-17 DEB

Track METEOR 2-17 DEB now!
10-day predictions


NORAD ID: 31401
Int'l Code: 1988-005W
Perigee: 895.1 km
Apogee: 919.5 km
Inclination: 82.5 °
Period: 103.0 minutes
Semi major axis: 7278 km
RCS: 0.0104 m2 (small)
Launch date: January 30, 1988
Source: Commonwealth of Independent States (former USSR) (CIS)
Launch site: PLESETSK MISSILE AND SPACE COMPLEX (PKMTR)

Note: This is SATELLITE DEBRIS
aabbcc
Your satellite tracking list
Your tracking list is empty




NASA's NSSDC Master Catalog

Two Line Element Set (TLE):
1 31401U 88005W   20096.24885267 +.00000929 +00000-0 +64135-3 0  9991
2 31401 082.5303 285.0717 0016714 197.8217 162.2367 13.98163485343461
Source of the keplerian elements: AFSPC